Weather History for Midland, MI

Change the Weather History Date:

Monday, April 1, 2013

  Actual Average (KMBS) Record (KMBS)
Temperature  
Mean Temperature 30 °F 40 °F  
Max Temperature 33 °F 49 °F 69 °F (2007)
Min Temperature 26 °F 31 °F 24 °F (2013)
Degree Days  
Heating Degree Days 36    
Month to date heating degree days  
Since 1 July heating degree days  
Cooling Degree Days 0    
Month to date cooling degree days  
Year to date cooling degree days  
Moisture  
Dew Point 16 °F    
Average Humidity 56    
Maximum Humidity 77    
Minimum Humidity 41    
Precipitation  
Precipitation 0.00 in 0.08 in 0.39 in (2007)
Month to date precipitation 0.08  
Year to date precipitation 5.46  
Snow  
Snow 0.00 in - - ()
Month to date snowfall  
Since 1 July snowfall  
Snow Depth -    
Sea Level Pressure  
Sea Level Pressure 29.93 in    
Wind  
Wind Speed 12 mph (WNW)    
Max Wind Speed 21 mph    
Max Gust Speed 30 mph    
Visibility 10 miles    
Events      
T = Trace of Precipitation, MM = Missing Value Source: NWS Daily Summary

Daily Weather History Graph

Daily Weather History Graph

Search for Another Location

Airport:

Trip Planner

Search our weather history database for the weather conditions in past years. The results will help you decide how hot, cold, wet, or windy it might be!

Date:

Astronomy

Apr. 01, 2013 Rise Set
Actual Time 7:18 AM EDT 8:04 PM EDT
Civil Twilight 6:49 AM EDT 8:33 PM EDT
Nautical Twilight 6:14 AM EDT 9:07 PM EDT
Astronomical Twilight 5:39 AM EDT 9:43 PM EDT
Moon 1:19 AM EDT 10:55 AM EDT
Length of Visible Light 13h 43m
Length of Day
12h 45m
Waning Gibbous, 67% of the Moon is Illuminated
Apr 1
Waning Gibbous
Apr 3
Last Quarter
Apr 10
New
Apr 18
First Quarter
Apr 25
Full

Hourly Weather History & Observations

Time (EDT) Temp. Windchill Dew Point Humidity Pressure Visibility Wind Dir Wind Speed Gust Speed Precip Events Conditions
12:14 AM 33.8 °F 23.9 °F 26.6 °F 75% 29.71 in 10.0 mi NW 15.0 mph 21.9 mph N/A   Overcast
12:34 AM 33.6 °F 26.2 °F 27.0 °F 77% 29.72 in 10.0 mi NNW 9.2 mph 17.3 mph N/A   Overcast
12:54 AM 33.1 °F 23.9 °F 25.3 °F 73% 29.72 in 10.0 mi NW 12.7 mph 18.4 mph N/A   Overcast
1:13 AM 32.9 °F 25.3 °F 24.4 °F 71% 29.73 in 10.0 mi WNW 9.2 mph 20.7 mph N/A   Overcast
1:34 AM 32.5 °F 23.2 °F 24.1 °F 71% 29.75 in 10.0 mi NW 12.7 mph 17.3 mph N/A   Overcast
1:54 AM 31.3 °F 21.6 °F 20.5 °F 64% 29.76 in 10.0 mi NNW 12.7 mph 20.7 mph N/A   Overcast
2:13 AM 30.2 °F 21.9 °F 19.4 °F 64% 29.77 in 10.0 mi NW 9.2 mph 16.1 mph N/A   Mostly Cloudy
2:34 AM 30.0 °F 20.0 °F 17.4 °F 59% 29.77 in 10.0 mi NW 12.7 mph 21.9 mph N/A   Scattered Clouds
2:54 AM 29.3 °F 18.6 °F 16.5 °F 59% 29.78 in 10.0 mi NW 13.8 mph 19.6 mph N/A   Clear
3:13 AM 29.3 °F 18.2 °F 16.7 °F 59% 29.79 in 10.0 mi WNW 15.0 mph 20.7 mph N/A   Clear
3:34 AM 29.3 °F 19.1 °F 16.7 °F 59% 29.79 in 10.0 mi WNW 12.7 mph - N/A   Scattered Clouds
3:53 AM 28.9 °F 19.2 °F 16.7 °F 60% 29.80 in 10.0 mi WNW 11.5 mph 16.1 mph N/A   Scattered Clouds
4:13 AM 28.4 °F 19.1 °F 16.9 °F 62% 29.80 in 10.0 mi West 10.4 mph - N/A   Clear
4:34 AM 28.4 °F 18.0 °F 17.2 °F 63% 29.81 in 10.0 mi WNW 12.7 mph 18.4 mph N/A   Clear
4:53 AM 28.6 °F 18.7 °F 17.2 °F 63% 29.82 in 10.0 mi WNW 11.5 mph 18.4 mph N/A   Scattered Clouds
5:13 AM 28.2 °F 20.2 °F 17.6 °F 64% 29.82 in 10.0 mi WNW 8.1 mph - N/A   Scattered Clouds
5:34 AM 28.2 °F 18.3 °F 16.5 °F 62% 29.84 in 10.0 mi WNW 11.5 mph 19.6 mph N/A   Clear
5:54 AM 28.0 °F 16.5 °F 16.2 °F 61% 29.84 in 10.0 mi WNW 15.0 mph 23.0 mph N/A   Clear
6:13 AM 27.9 °F 17.3 °F 16.2 °F 62% 29.85 in 10.0 mi WNW 12.7 mph 20.7 mph N/A   Clear
6:34 AM 27.5 °F 18.0 °F 15.8 °F 61% 29.86 in 10.0 mi West 10.4 mph 18.4 mph N/A   Clear
6:54 AM 27.3 °F 16.6 °F 14.9 °F 60% 29.87 in 10.0 mi WNW 12.7 mph 20.7 mph N/A   Clear
7:14 AM 27.0 °F 17.3 °F 15.4 °F 62% 29.87 in 10.0 mi WNW 10.4 mph 17.3 mph N/A   Clear
7:34 AM 27.0 °F 19.5 °F 15.6 °F 62% 29.88 in 10.0 mi WNW 6.9 mph - N/A   Clear
7:53 AM 27.5 °F 17.4 °F 14.9 °F 59% 29.89 in 10.0 mi WNW 11.5 mph 17.3 mph N/A   Clear
8:14 AM 28.2 °F 18.9 °F 15.1 °F 58% 29.90 in 10.0 mi West 10.4 mph - N/A   Clear
8:34 AM 28.8 °F 17.9 °F 15.1 °F 57% 29.91 in 10.0 mi WNW 13.8 mph 19.6 mph N/A   Clear
8:53 AM 29.1 °F 19.4 °F 14.7 °F 55% 29.91 in 10.0 mi WNW 11.5 mph 20.7 mph N/A   Clear
9:14 AM 29.7 °F 17.8 °F 14.4 °F 53% 29.92 in 10.0 mi WNW 17.3 mph 25.3 mph N/A   Clear
9:34 AM 30.6 °F 18.6 °F 14.7 °F 52% 29.92 in 10.0 mi WNW 18.4 mph 24.2 mph N/A   Scattered Clouds
9:53 AM 30.7 °F 19.2 °F 14.4 °F 51% 29.92 in 10.0 mi WNW 17.3 mph 25.3 mph N/A   Scattered Clouds
10:14 AM 30.9 °F 19.4 °F 13.5 °F 48% 29.93 in 10.0 mi NW 17.3 mph 25.3 mph N/A   Scattered Clouds
10:34 AM 31.6 °F 20.0 °F 12.7 °F 46% 29.94 in 10.0 mi NW 18.4 mph 25.3 mph N/A   Scattered Clouds
10:53 AM 31.3 °F 21.6 °F 12.7 °F 46% 29.94 in 10.0 mi WNW 12.7 mph 27.6 mph N/A   Mostly Cloudy
11:14 AM 31.6 °F 19.3 °F 12.6 °F 45% 29.95 in 10.0 mi WNW 20.7 mph 29.9 mph N/A   Mostly Cloudy
11:34 AM 31.8 °F 20.6 °F 15.8 °F 52% 29.95 in 10.0 mi West 17.3 mph 25.3 mph N/A   Mostly Cloudy
11:53 AM 32.4 °F 21.3 °F 16.2 °F 51% 29.96 in 10.0 mi West 17.3 mph 23.0 mph N/A   Overcast
12:14 PM 31.5 °F 21.4 °F 15.3 °F 51% 29.97 in 10.0 mi WNW 13.8 mph 23.0 mph N/A   Mostly Cloudy
12:33 PM 31.5 °F 20.9 °F 15.1 °F 51% 29.97 in 10.0 mi WNW 15.0 mph 21.9 mph N/A   Mostly Cloudy
12:54 PM 32.5 °F 21.5 °F 15.6 °F 50% 29.97 in 10.0 mi WNW 17.3 mph 24.2 mph N/A   Overcast
1:14 PM 32.4 °F 22.5 °F 14.4 °F 48% 29.98 in 10.0 mi West 13.8 mph 25.3 mph N/A   Overcast
1:33 PM 32.0 °F 22.5 °F 12.7 °F 45% 29.98 in 10.0 mi West 12.7 mph 25.3 mph N/A   Overcast
1:54 PM 33.8 °F 22.5 °F 14.0 °F 44% 29.98 in 10.0 mi West 19.6 mph 28.8 mph N/A   Mostly Cloudy
2:14 PM 32.7 °F 22.1 °F 12.4 °F 43% 29.98 in 10.0 mi WNW 16.1 mph 24.2 mph N/A   Mostly Cloudy
2:33 PM 32.4 °F 21.7 °F 12.7 °F 44% 29.99 in 10.0 mi West 16.1 mph 25.3 mph N/A   Mostly Cloudy
2:54 PM 32.0 °F 20.5 °F 11.5 °F 43% 30.00 in 10.0 mi West 18.4 mph 24.2 mph N/A   Mostly Cloudy
3:14 PM 32.7 °F 22.5 °F 11.5 °F 41% 30.00 in 10.0 mi WNW 15.0 mph 23.0 mph N/A   Overcast
3:34 PM 32.0 °F 21.6 °F 11.1 °F 42% 30.00 in 10.0 mi WNW 15.0 mph 20.7 mph N/A   Overcast
3:54 PM 32.7 °F 22.1 °F 11.8 °F 42% 30.00 in 10.0 mi WNW 16.1 mph 28.8 mph N/A   Overcast
4:14 PM 32.2 °F 22.7 °F 12.0 °F 43% 30.00 in 10.0 mi West 12.7 mph 23.0 mph N/A   Overcast
4:34 PM 32.0 °F 22.1 °F 13.3 °F 46% 30.01 in 10.0 mi NW 13.8 mph 24.2 mph N/A   Mostly Cloudy
4:54 PM 32.2 °F 23.2 °F 13.3 °F 46% 30.01 in 10.0 mi WNW 11.5 mph 24.2 mph N/A   Mostly Cloudy
5:14 PM 31.6 °F 20.7 °F 12.9 °F 46% 30.02 in 10.0 mi West 16.1 mph 21.9 mph N/A   Mostly Cloudy
5:34 PM 31.5 °F 20.9 °F 12.9 °F 46% 30.02 in 10.0 mi WNW 15.0 mph 24.2 mph N/A   Overcast
5:54 PM 31.1 °F 20.5 °F 12.7 °F 47% 30.02 in 10.0 mi WNW 15.0 mph 20.7 mph N/A   Mostly Cloudy
6:14 PM 32.4 °F 25.3 °F 13.3 °F 45% 30.02 in 10.0 mi West 8.1 mph 19.6 mph N/A   Mostly Cloudy
6:34 PM 31.6 °F 22.6 °F 12.9 °F 46% 30.03 in 10.0 mi West 11.5 mph 18.4 mph N/A   Overcast
6:54 PM 31.1 °F 21.4 °F 15.4 °F 52% 30.03 in 10.0 mi WNW 12.7 mph 18.4 mph N/A   Overcast
7:14 PM 30.6 °F 21.2 °F 12.0 °F 46% 30.04 in 10.0 mi WNW 11.5 mph 18.4 mph N/A   Mostly Cloudy
7:34 PM 30.0 °F 19.5 °F 16.5 °F 57% 30.04 in 10.0 mi West 13.8 mph 21.9 mph N/A   Overcast
7:54 PM 29.1 °F 23.0 °F 17.1 °F 61% 30.04 in 10.0 mi West 5.8 mph - N/A   Mostly Cloudy
8:14 PM 29.3 °F 19.1 °F 14.7 °F 55% 30.04 in 10.0 mi WNW 12.7 mph 17.3 mph N/A   Scattered Clouds
8:34 PM 28.6 °F 22.4 °F 15.4 °F 58% 30.05 in 10.0 mi West 5.8 mph - N/A   Mostly Cloudy
8:54 PM 28.4 °F 22.2 °F 15.3 °F 58% 30.05 in 10.0 mi West 5.8 mph - N/A   Scattered Clouds
9:14 PM 28.0 °F 22.8 °F 15.4 °F 59% 30.06 in 10.0 mi WNW 4.6 mph - N/A   Scattered Clouds
9:34 PM 27.3 °F 23.4 °F 15.6 °F 61% 30.06 in 10.0 mi West 3.5 mph - N/A   Scattered Clouds
9:54 PM 26.6 °F 22.6 °F 15.8 °F 64% 30.06 in 10.0 mi WSW 3.5 mph - N/A   Clear
10:14 PM 26.2 °F 22.1 °F 15.6 °F 64% 30.06 in 10.0 mi WSW 3.5 mph - N/A   Clear
10:34 PM 26.2 °F - 15.6 °F 64% 30.07 in 10.0 mi Calm Calm - N/A   Scattered Clouds
10:54 PM 27.1 °F - 16.7 °F 65% 30.07 in 10.0 mi Calm Calm - N/A   Mostly Cloudy
11:14 PM 27.5 °F 23.6 °F 16.3 °F 63% 30.06 in 10.0 mi WSW 3.5 mph - N/A   Overcast
11:34 PM 28.2 °F 24.4 °F 16.0 °F 60% 30.07 in 10.0 mi West 3.5 mph - N/A   Overcast
11:55 PM 28.2 °F 23.1 °F 15.6 °F 59% 30.07 in 10.0 mi WSW 4.6 mph - N/A   Overcast